Location: Arbon
(43.0005°N, 0.7472°E)
Time: 10:18:50
(UTC+00:00)

Vanguard 2 Rocket - Pass Details

Date: 04 December 2020
Orbit: 554 x 3325 km, 32.9° (Epoch: 21 January)

Event Time Altitude Azimuth Distance (km) Brightness Sun altitude
Rises 03:28:55 0° 192° (SSW) 5,855 10.9 -40.0°
Reaches altitude 10° 03:33:47 10° 178° (S) 5,270 10.7 -39.1°
Maximum altitude 03:45:09 23° 134° (SE) 4,971 10.9 -37.0°
Drops below altitude 10° 03:58:26 10° 92° (E) 6,287 12.0 -34.6°
Sets 04:04:55 0° 81° (E) 7,250 12.5 -33.4°
